Location: Bowden
(51.9167°N, 114.0333°W)
Time: 09:58:47
(UTC+00:00)

Envisat - Pass Details

Date: 14 December 2021
Orbit: 764 x 766 km, 98.2° (Epoch: 28 January)

Event Time Altitude Azimuth Distance (km) Brightness Sun altitude
Rises 12:38:20 0° 15° (NNE) 3,247 6.4 -26.1°
Reaches altitude 10° 12:40:39 10° 18° (NNE) 2,316 5.6 -25.7°
Maximum altitude 12:45:46 73° 103° (ESE) 806 3.1 -24.9°
Drops below altitude 10° 12:50:49 10° 188° (S) 2,298 5.4 -24.2°
Sets 12:53:08 0° 191° (S) 3,219 6.2 -23.8°
